Terug naar catalogus

COSMOS 2050

ActiefMilitairHEO
NORAD 20330·PAYLOAD·🇷🇺 Russia

Gelanceerd Nov 23, 1989 vanaf Plesetsk Cosmodrome

Loading…

Volgende Passages (komende 24 uur)

TLE

VersSource: Space-Track

Epoch: Sep 13, 2026, 11:10 UTC

1 20330U 89091A   26256.46567859  .00000595  00000-0  00000-0 0  9995
2 20330  65.7585  78.7477 5869636 162.6101 232.0186  2.00499114269577

Volg COSMOS 2050 in realtime met AllMySat

Download on the App Store